Weather History for Watsonville, CA

Change the Weather History Date:

Saturday, December 8, 2012

  Actual Average Record
Temperature  
Mean Temperature 51 °F 50 °F  
Max Temperature 64 °F 60 °F 68 °F (2006)
Min Temperature 38 °F 40 °F 27 °F (2013)
Degree Days  
Heating Degree Days 14    
Month to date heating degree days 78  
Since 1 July heating degree days 819  
Cooling Degree Days 0    
Month to date cooling degree days 0  
Year to date cooling degree days 79  
Moisture  
Dew Point 42 °F    
Average Humidity 72    
Maximum Humidity 100    
Minimum Humidity 44    
Precipitation  
Precipitation 0.00 in - 1.54 in (1950)
Month to date precipitation 2.22  
Year to date precipitation 19.06  
Since 1 July precipitation 7.13  
Sea Level Pressure  
Sea Level Pressure 30.05 in    
Wind  
Wind Speed 1 mph (WNW)    
Max Wind Speed 7 mph    
Max Gust Speed 21 mph    
Visibility 10 miles    
Events      
T = Trace of Precipitation, MM = Missing Value Source: NWS Daily Summary

Daily Weather History Graph

Daily Weather History Graph

Search for Another Location

Airport:

Trip Planner

Search our weather history database for the weather conditions in past years. The results will help you decide how hot, cold, wet, or windy it might be!

Date:

Astronomy

Dec. 08, 2012 Rise Set
Actual Time 7:08 AM PST 4:50 PM PST
Civil Twilight 6:39 AM PST 5:19 PM PST
Nautical Twilight 6:07 AM PST 5:51 PM PST
Astronomical Twilight 5:35 AM PST 6:23 PM PST
Moon 1:45 AM PST (12/8) 1:18 PM PST (12/8)
Length of Visible Light 10h 39m
Length of Day
9h 42m
Waning Crescent, 27% of the Moon is Illuminated
Dec 8
Waning Crescent
Dec 13
New
Dec 19
First Quarter
Dec 28
Full
Jan 4
Last Quarter

Hourly Weather History & Observations

Time (PST) Temp. Dew Point Humidity Pressure Visibility Wind Dir Wind Speed Gust Speed Precip Events Conditions
12:53 AM 44.1 °F 41.0 °F 89% 30.07 in 10.0 mi Calm Calm - N/A   Clear
1:53 AM 43.0 °F 39.9 °F 89% 30.07 in 10.0 mi Calm Calm - N/A   Clear
2:53 AM 42.1 °F 39.9 °F 92% 30.07 in 10.0 mi Calm Calm - N/A   Clear
3:53 AM 41.0 °F 39.0 °F 93% 30.06 in 10.0 mi Calm Calm - N/A   Clear
4:53 AM 39.9 °F 39.0 °F 97% 30.05 in 10.0 mi Calm Calm - N/A   Clear
5:53 AM 39.0 °F 37.9 °F 96% 30.05 in 10.0 mi Calm Calm - N/A   Clear
6:53 AM 37.9 °F 36.0 °F 93% 30.06 in 10.0 mi Calm Calm - N/A   Clear
7:42 AM 39.2 °F 37.4 °F 93% 30.06 in 7.0 mi Calm Calm - N/A   Partly Cloudy
7:53 AM 39.0 °F 37.9 °F 96% 30.06 in 8.0 mi Calm Calm - N/A   Mostly Cloudy
8:20 AM 41.0 °F 39.2 °F 93% 30.06 in 10.0 mi Calm Calm - N/A   Scattered Clouds
8:53 AM 43.0 °F 42.1 °F 97% 30.07 in 8.0 mi Calm Calm - N/A   Clear
9:53 AM 48.0 °F 44.1 °F 86% 30.08 in 10.0 mi Calm Calm - N/A   Clear
10:53 AM 53.1 °F 46.0 °F 77% 30.08 in 10.0 mi SE 3.5 mph - N/A   Clear
11:53 AM 57.0 °F 46.0 °F 67% 30.05 in 10.0 mi Calm Calm - N/A   Clear
12:53 PM 61.0 °F 46.0 °F 58% 30.03 in 10.0 mi East 4.6 mph - N/A   Clear
1:53 PM 63.0 °F 43.0 °F 48% 30.01 in 10.0 mi Calm Calm - N/A   Clear
2:53 PM 64.0 °F 42.1 °F 45% 30.00 in 10.0 mi Calm Calm - N/A   Clear
3:53 PM 59.0 °F 46.9 °F 64% 30.01 in 10.0 mi SSW 3.5 mph - N/A   Clear
5:53 PM 55.0 °F 46.9 °F 74% 30.03 in 10.0 mi Calm Calm - N/A   Clear
6:53 PM 53.1 °F 48.0 °F 83% 30.04 in 10.0 mi NW 4.6 mph - N/A   Clear
7:53 PM 50.0 °F 46.0 °F 86% 30.06 in 10.0 mi WNW 5.8 mph - N/A   Clear
8:53 PM 48.0 °F 44.1 °F 86% 30.06 in 10.0 mi WNW 3.5 mph - N/A   Clear
9:53 PM 46.9 °F 42.1 °F 83% 30.07 in 10.0 mi NW 4.6 mph - N/A   Clear
10:53 PM 45.0 °F 41.0 °F 86% 30.07 in 10.0 mi Calm Calm - N/A   Clear
11:53 PM 45.0 °F 39.9 °F 82% 30.08 in 10.0 mi Calm Calm - N/A   Clear